Home   Weather   Gotha   Past weeks

Flag for Germany Past Weather in Gotha, Thuringia, Germany — Yesterday and Last 2 Weeks

Now
25 °F

Passing clouds.


Feels Like: 25 °F
Forecast: 15 / 25 °F
Wind: 2 mph from East

Location: Erfurt-Bindersleben

Current Time: Jan 17, 2017 at 8:20:26 am

Latest Report: Jan 17, 2017 at 7:50 am


Visibility: N/A

Pressure: 30.48 "Hg

Humidity: 86%

Dew Point: 21 °F

Location of GothaLocation

Past Weather in Gotha — Graph

°F

Gotha Temperature Yesterday

Maximum temperature yesterday: 28 °F (at 12:20 am)
Minimum temperature yesterday: 21 °F (at 6:50 am)
Average temperature yesterday: 25 °F

High & Low Weather Summary for the Past Weeks

 TemperatureHumidityPressure
High39 °F (Jan 12, 11:20 am)100% (Jan 2, 8:20 am)30.72 "Hg (Jan 2, 8:20 am)
Low7 °F (Jan 6, 2:50 am)54% (Jan 7, 12:20 pm)29.00 "Hg (Jan 13, 3:50 am)
Average29 °F85%30.03 "Hg
* Reported Jan 2 7:20 am — Jan 17 7:20 am, Gotha, Weather by CustomWeather, © 2017

Note: Actual official high and low records may vary slightly from our data, if they occured in-between our weather recording intervals... More about our weather records

Advertising

Gotha Weather History for the Previous 24 Hours

Scroll right to see more
 ConditionsComfort  
Time TempWeatherWind HumidityBarometerVisibility
7:20 am
Tue, Jan 17
25 °FPassing clouds.2 mph86%30.48 "HgN/A
6:50 am25 °FPassing clouds.2 mph86%30.48 "HgN/A
6:20 am25 °FPassing clouds.5 mph86%30.45 "HgN/A
5:50 am25 °FPassing clouds.8 mph86%30.45 "HgN/A
5:20 am25 °FPassing clouds.7 mph86%30.45 "HgN/A
4:50 am25 °FPassing clouds.3 mph86%30.45 "HgN/A
4:20 am25 °FPassing clouds.2 mph93%30.45 "HgN/A
3:50 am25 °FPassing clouds.2 mph93%30.45 "HgN/A
3:20 am25 °FLight snow. Passing clouds.3 mph93%30.42 "HgN/A
2:50 am25 °FLight snow. Partly cloudy.6 mph93%30.42 "HgN/A
2:20 am25 °FPartly cloudy.7 mph93%30.42 "HgN/A
1:50 am25 °FPassing clouds.9 mph86%30.42 "HgN/A
1:20 am25 °FOvercast.6 mph86%30.39 "HgN/A
12:50 am25 °FOvercast.7 mph86%30.39 "HgN/A
12:20 am25 °FOvercast.8 mph86%30.39 "HgN/A
11:50 pm
Mon, Jan 16
25 °FLight snow. Overcast.3 mph93%30.39 "HgN/A
11:20 pm25 °FLight snow. Overcast.5 mph93%30.39 "HgN/A
10:50 pm25 °FOvercast.5 mph86%30.39 "HgN/A
10:20 pm25 °FPassing clouds.3 mph86%30.39 "HgN/A
9:50 pm25 °FPassing clouds.3 mph86%30.36 "HgN/A
9:20 pm25 °FLight snow. Passing clouds.5 mph86%30.36 "HgN/A
8:50 pm25 °FPassing clouds.5 mph86%30.36 "HgN/A
8:20 pm25 °FPassing clouds.6 mph86%30.36 "HgN/A
7:50 pm25 °FPartly cloudy.5 mph86%30.33 "HgN/A
7:20 pm25 °FPartly cloudy.5 mph86%30.33 "HgN/A
6:50 pm25 °FPartly cloudy.6 mph86%30.33 "HgN/A
6:20 pm25 °FPartly cloudy.5 mph86%30.30 "HgN/A
5:50 pm23 °FPartly cloudy.7 mph86%30.30 "HgN/A
5:20 pm23 °FPassing clouds.8 mph86%30.30 "HgN/A
4:50 pm23 °FPassing clouds.6 mph86%30.30 "HgN/A
4:20 pm25 °FPartly sunny.6 mph80%30.27 "HgN/A
3:50 pm25 °FPartly sunny.3 mph80%30.27 "HgN/A
3:20 pm25 °FPartly sunny.5 mph80%30.27 "HgN/A
2:50 pm27 °FPartly sunny.6 mph80%30.24 "HgN/A
2:20 pm27 °FScattered clouds.6 mph80%30.24 "HgN/A
1:50 pm27 °FScattered clouds.8 mph80%30.24 "HgN/A
1:20 pm28 °FPassing clouds.8 mph74%30.24 "HgN/A
12:50 pm27 °FPassing clouds.9 mph80%30.24 "HgN/A
12:20 pm27 °FPassing clouds.8 mph80%30.24 "HgN/A
11:50 am27 °FPassing clouds.9 mph80%30.24 "HgN/A
11:20 am27 °FPassing clouds.7 mph74%30.24 "HgN/A
10:50 am25 °FPassing clouds.6 mph80%30.24 "HgN/A
10:20 am25 °FPassing clouds.7 mph80%30.24 "HgN/A
9:50 am25 °FPartly sunny.7 mph86%30.21 "HgN/A
9:20 am25 °FPartly sunny.8 mph86%30.21 "HgN/A
8:50 am23 °FPartly sunny.7 mph93%30.21 "HgN/A
8:20 am21 °FPartly sunny.9 mph93%30.18 "HgN/A
Weather by CustomWeather, © 2017

See weather overviewHow to use our weather pages